Regional Weather Roundup
Issued by NWS

Home | Current Version | Previous Version | Text Only | Print | Product List | Glossary On
Versions: 1 2 3 4 5 6 7 8 9 10 11 12 13 14 15 16 17 18 19 20 21 22 23 24 25 26 27 28 29 30 31 32 33 34 35 36 37 38 39 40 41 42 43 44 45 46 47 48 49 50
146
ASUS42 KTBW 220717
RWRFL
FLORIDA REGIONAL WEATHER ROUNDUP
NATIONAL WEATHER SERVICE TAMPA BAY RUSKIN FL
200 AM EST WED NOV 22 2017

NOTE: "FAIR" INDICATES FEW OR NO CLOUDS BELOW 12,000 FEET WITH NO
SIGNIFICANT WEATHER AND/OR OBSTRUCTIONS TO VISIBILITY.

FLZ001>010-012>015-112-114-115-220800-
PANHANDLE FLORIDA

CITY           SKY/WX    TMP DP  RH WIND       PRES   REMARKS
PENSACOLA      CLOUDY    59  46  62 N9        30.00S
PENSACOLA NAS  CLOUDY    57  47  69 N7        29.99F
MILTON NAS     CLOUDY    56  49  77 N6        30.00
CRESTVIEW      CLOUDY    58  50  75 N7        30.01F
DUKE FIELD     CLOUDY    57  52  82 N9        29.99S
VALPARAISO     CLOUDY    59  52  79 N9        29.97F
PANAMA CITY    FAIR      61  59  93 CALM      29.96F
TYNDALL AFB    CLOUDY    63  61  94 N3        29.96F
APALACHICOLA   CLOUDY    61  61 100 N6        29.95S

STATION/POSITION SKY/WX   TEMP    WIND        PRES    WAVE   SWELL
                          AIR SEA DIR/SP/G            HT/PER HT/PER
                          (F)     (DEG/KT/KT) (MB)    (FT/S) (FT/S)
29.2N   88.2W              70 78   20/ 10/ 14 1015.7
28.8N   86.0W              71 77  350/  8/ 12 1013.1F   3/ 6   3/ 6
PANAMA CITY BEAC              70   60/  6/  8 1014.9F
TOWER C                    69     100/ 13/ 14 1014.2F

$$
FLZ011-016>038-118-127-128-134-139-239-220800-
NORTH FLORIDA

CITY           SKY/WX    TMP DP  RH WIND       PRES   REMARKS
MARIANNA       CLOUDY    61  61 100 CALM      29.98R FOG
TALLAHASSEE    CLOUDY    58  58 100 N5        29.97S
PERRY          PTCLDY    60  59  97 SE5       29.96F
LIVE OAK       CLOUDY    57  57 100 CALM      29.98S FOG
CROSS CITY     CLEAR     62  62  99 E5        30.00F
LAKE CITY      CLOUDY    59  57  94 SE6       29.97S
GAINESVILLE    CLOUDY    62  59  90 CALM      29.99F
WILLISTON      MOCLDY    66  64  94 CALM      29.97S
PALATKA        MOCLDY    57  57 100 CALM      29.97R
MAYPORT NAS    MOCLDY    63  61  93 NW3       29.95F
JACKSONVILLE   CLOUDY    60  58  92 CALM      29.95F
JAX NAS        MOCLDY    64  60  87 N5        29.96F
JAX CECIL        N/A     57  57 100 MISG      29.96S
ST AUGUSTINE   CLEAR     62  60  93 NE3       29.96F
PALM COAST     FAIR      62  61  97 CALM      29.95F

STATION/POSITION SKY/WX   TEMP    WIND        PRES    WAVE   SWELL
                          AIR SEA DIR/SP/G            HT/PER HT/PER
                          (F)     (DEG/KT/KT) (MB)    (FT/S) (FT/S)
SHELL POINT      NOT AVBL
KEATON BEACH               61      90/  9/ 11 1013.8F
CEDAR KEY                  63      70/ 12/ 13 1014.7F
FERNANDINA                    65  150/  2/  3 1014.8F
30.7N   81.3W                 66                N/A     4/ 8
MAYPORT                       67  340/  5/  7 1014.4F
31.4N   80.9W              65 67  230/  6/  6 1014.7R   4/ 8   3/ 8
ST AUGUSTINE               66 69   30/ 12/ 13 1014.4F

$$
FLZ040-043>046-052-053-057-058-063-144-220800-
INTERIOR CENTRAL FLORIDA

CITY           SKY/WX    TMP DP  RH WIND       PRES   REMARKS
OCALA          PTCLDY    64  61  90 VRB3      29.97S
THE VILLAGES     N/A     66  66 100 E3        29.87S FOG
LEESBURG       CLOUDY    66  65  96 N7        29.97S
SANFORD        CLOUDY    66  64  93 N8        29.95S
ORLANDO EXEC   CLOUDY    66  65  96 N6        29.95R
ORLANDO INTL   CLOUDY    65  65 100 N8        29.95R
KISSIMMEE      CLEAR     63  62  97 N6        29.95S
WINTER HAVEN   FOG       63  63 100 N5        29.95S VSB 1
LAKELAND       FOG       59  59 100 CALM      29.94F VSB 1/4
BARTOW         FOG       61 N/A N/A CALM      29.94F VSB 1/2
SEBRING        FOG       63  61  94 N3        29.93S VSB 3/4
OKEECHOBEE     PTCLDY    63  61  94 CALM      29.92F

$$
FLZ041-047-054-059-064-141-147-220800-
EAST CENTRAL FLORIDA

CITY           SKY/WX    TMP DP  RH WIND       PRES   REMARKS
DAYTONA BEACH  MOCLDY    65  65 100 N9        29.96F
DELAND         CLOUDY    64  64 100 N5        29.95F
JFK SPACE CTR  MOCLDY    64  64 100 N7        29.92S
CAPE CANAVERAL PTCLDY    64  62  96 NW5       29.92R
PATRICK AFB    CLEAR     67  67 100 NW3       29.92S
MELBOURNE      CLEAR     64  63  96 W3        29.92S
VERO BEACH     CLEAR     65  64  97 CALM      29.91F
FT PIERCE      MOCLDY    64  64 100 CALM      29.92S
STUART         CLEAR     68  68 100 CALM      29.93S

STATION/POSITION SKY/WX   TEMP    WIND        PRES    WAVE   SWELL
                          AIR SEA DIR/SP/G            HT/PER HT/PER
                          (F)     (DEG/KT/KT) (MB)    (FT/S) (FT/S)
28.5N   80.2W              75 78  230/  8/ 12 1013.1S   6/ 8   7/ 8
TRIDENT PIER                      310/  2/  3   N/A
27.5N   80.2W                 75                N/A     4/ 8

$$
FLZ050-056-061-142-242-148-248-149-249-151-251-155-255-
160-260-220800-
WEST CENTRAL FLORIDA

CITY           SKY/WX    TMP DP  RH WIND       PRES   REMARKS
CRYSTAL RIVER  MOCLDY    61  61 100 CALM      29.96S
INVERNESS      CLOUDY    63  63 100 NE3       29.97S
BROOKSVILLE    PTCLDY    59  59 100 NE6       29.96F FOG
CLEARWATER AIR FAIR      63  63 100 CALM      29.93S
ST PETE CLEARW PTCLDY    63  63 100 CALM      29.94F FOG
TAMPA INTL     CLOUDY    66  63  90 CALM      29.95S
TAMPA EXEC     MOCLDY    61  61 100 CALM      29.95S FOG
PLANT CITY     CLOUDY    63  61  94 CALM      29.96S FOG
MACDILL AFB    CLEAR     61  61 100 NE5       29.94S
PETER O KNIGHT   N/A    N/A N/A N/A NE5       29.95R
ST PETERSBURG  MOCLDY    68  66  93 E5        29.92F
SARASOTA       PTCLDY    62  62 100 E5        29.91F
VENICE         FAIR      64  64 100 NE5       29.93S

STATION/POSITION SKY/WX   TEMP    WIND        PRES    WAVE   SWELL
                          AIR SEA DIR/SP/G            HT/PER HT/PER
                          (F)     (DEG/KT/KT) (MB)    (FT/S) (FT/S)
27.3N   84.2W                 76                N/A     2/ 4
CLEARWATER BEACH              69   80/  5/  6 1013.8F
MIDDLE TAMPA BAY                   90/  5/  5 1013.6F
VENICE                     66 72   70/  6/  7 1013.5F

$$
FLZ066-069-070-075>078-162-262-165-265-220800-
SOUTHWEST FLORIDA AND KEYS

CITY           SKY/WX    TMP DP  RH WIND       PRES   REMARKS
PUNTA GORDA    CLEAR     61  60  97 CALM      29.94S FOG
FT MYERS       CLEAR     66  66 100 CALM      29.92F
SOUTHWEST INTL CLEAR     66  66 100 CALM      29.93S
NAPLES         CLEAR     68  67  96 CALM      29.92S
MARCO ISLAND   CLEAR     69  67  93 N3        29.93S
IMMOKALEE      MOCLDY    64  64 100 CALM      29.93F FOG
MARATHON       CLEAR     72  70  93 CALM      29.89F
KEY WEST NAS   CLEAR     73  73 100 NE3       29.91F
KEY WEST INTL  PTCLDY   N/A N/A N/A NE6       29.91F

STATION/POSITION SKY/WX   TEMP    WIND        PRES    WAVE   SWELL
                          AIR SEA DIR/SP/G            HT/PER HT/PER
                          (F)     (DEG/KT/KT) (MB)    (FT/S) (FT/S)
NAPLES                        75   60/  3/  5 1013.1F
DRY TORTUGAS               77     100/  5/  7 1012.8F
SAND KEY                   76                 1013.3F
MOLASSES REEF              78 80  110/  2/  2 1013.7F

$$
FLZ067-068-071>074-168-172>174-220800-
SOUTHEAST FLORIDA

CITY           SKY/WX    TMP DP  RH WIND       PRES   REMARKS
W PALM BEACH   PTCLDY    72  67  84 CALM      29.91F
FT LAUDER-EXEC CLEAR     69  69 100 CALM      29.91F
FT LAUDERDALE  PTCLDY    73  71  93 CALM      29.90F
POMPANO BEACH  CLEAR     71  70  96 CALM      29.91F
PEMBROKE PINES CLEAR     70  68  93 SE3       29.92F
OPA LOCKA      CLEAR     69  69 100 CALM      29.92F
MIAMI          PTCLDY    71  70  96 CALM      29.91F
WEST KENDALL   CLEAR     67  66  97 CALM      29.91F
HOMESTEAD      CLEAR     68  68 100 CALM      29.90F

STATION/POSITION SKY/WX   TEMP    WIND        PRES    WAVE   SWELL
                          AIR SEA DIR/SP/G            HT/PER HT/PER
                          (F)     (DEG/KT/KT) (MB)    (FT/S) (FT/S)
PORT EVERGLADES            75     300/  1/  2 1012.9F
VIRGINIA KEY                  78     CALM     1012.6F
LAKE WORTH                    78  230/  4/  6 1013.8F
FOWEY ROCKS                76 76  200/  3/  4 1013.3F
SETTLEMENT POINT           74     120/  4/  4 1013.1F

$$





USA.gov is the U.S. government's official web portal to all federal, state and local government web resources and services.